Wind_Speed
8 8 8 8 8 8 8 8 8 9 10 10 11 11 12 11 12 12 12 11 11 12 12 12 13 12 12 12 12 12 13 13 13 13 13 13 13 13 13 14 14 14 13
8 8 8 7 7 7 7 7 8 9 11 11 11 11 11 11 11 11 11 11 11 12 12 13 13 13 13 13 13 13 13 13 13 12 12 13 13 13 13 12 12 12 13
8 8 7 7 6 6 7 8 9 10 10 10 10 10 10 10 11 11 11 11 11 11 12 12 13 13 13 13 13 13 13 13 12 12 12 12 12 12 12 12 12 12 12
7 7 7 6 6 7 7 7 8 8 9 9 9 9 9 10 11 11 12 11 11 11 11 12 12 12 12 12 12 12 13 13 12 11 12 11 12 12 12 12 12 12 12
6 6 6 6 6 6 7 7 7 7 8 8 9 9 9 10 10 10 11 11 11 11 10 11 11 11 11 11 11 12 12 12 11 11 11 11 11 11 12 12 13 13 13
6 6 6 6 6 6 6 6 6 7 7 8 8 9 9 9 9 10 10 10 11 10 10 11 11 11 11 11 11 11 11 11 12 12 12 12 12 12 12 12 13 13 14
6 6 6 5 5 5 5 6 7 7 7 7 8 8 9 9 9 8 9 10 10 10 10 11 11 12 13 12 12 12 12 12 12 12 12 12 13 13 12 12 13 13 13
5 6 6 5 5 5 6 6 6 7 7 7 7 8 8 8 8 8 9 9 10 9 10 10 11 12 12 12 13 13 12 12 12 12 12 13 13 13 13 13 13 13 13
5 6 5 5 5 5 5 5 6 7 7 7 7 7 7 7 8 8 8 9 10 9 10 11 11 11 11 12 12 12 12 12 12 12 12 12 13 13 14 14 14 14 14
5 5 5 5 5 5 5 5 5 6 7 6 6 6 6 7 7 7 8 8 8 8 9 10 11 11 11 11 12 12 11 11 12 12 12 13 13 14 14 15 15 15 15
5 5 5 5 5 5 5 5 5 6 6 6 6 6 6 7 7 7 7 7 8 9 9 9 10 10 11 11 11 11 11 12 12 12 13 13 13 14 15 15 15 16 16
5 5 5 5 5 5 6 6 6 7 7 7 6 6 6 7 7 7 7 8 8 9 10 10 11 12 12 12 11 12 12 13 13 14 14 14 15 15 15 15 16 16 16
6 6 6 6 6 6 6 6 6 6 7 6 6 6 7 7 7 7 7 8 8 9 9 10 11 11 11 11 11 11 12 13 14 14 15 15 15 15 16 16 16 16 16
7 7 7 6 6 6 6 6 7 6 6 6 6 6 6 7 7 7 8 8 8 9 9 10 10 10 10 10 10 11 12 12 13 14 15 16 16 16 16 16 16 16 17
7 7 6 6 6 6 6 6 6 6 5 5 6 6 6 7 7 8 9 8 8 9 10 10 10 10 10 10 10 11 12 13 14 14 15 16 17 17 16 16 16 17 18
7 7 7 6 6 6 6 6 7 6 6 5 6 6 6 6 7 7 8 8 9 9 10 10 10 10 9 10 11 11 12 13 14 15 15 16 16 17 17 17 17 18 19
8 8 7 7 8 8 8 7 7 7 7 6 6 6 6 7 7 7 8 8 9 9 9 10 11 11 11 11 11 12 12 13 13 14 15 16 17 17 18 18 19 20 21
8 8 8 8 8 8 7 7 7 7 7 7 7 7 7 7 8 8 8 8 9 10 10 11 12 12 13 13 13 13 14 14 15 16 16 17 17 18 18 19 20 21 22
9 8 8 8 8 8 8 8 8 7 8 8 8 8 8 8 9 8 9 9 10 10 11 11 12 13 13 14 14 15 15 15 15 16 17 17 18 18 19 20 21 22 23
10 9 9 8 8 8 8 9 9 9 9 9 10 10 10 10 9 10 10 11 11 11 12 12 13 13 14 14 15 15 15 16 16 16 17 18 18 19 20 21 22 23 24
10 10 10 10 10 9 9 10 10 10 10 10 11 11 11 11 11 11 12 12 12 12 13 13 14 14 14 15 15 15 16 16 17 17 18 19 20 20 22 23 23 23 24
12 12 12 11 12 11 11 11 11 11 11 11 11 12 12 12 12 13 13 13 14 14 14 14 15 15 15 15 15 16 16 17 18 18 19 20 21 22 23 23 24 24 25
13 13 13 13 13 13 13 13 12 12 12 13 13 13 13 14 14 14 15 15 15 15 15 15 15 16 16 16 17 17 18 19 19 20 21 22 23 24 24 24 24 25 26
15 15 14 14 15 14 14 14 14 14 14 14 14 14 14 15 15 15 15 15 15 16 16 17 17 17 17 17 18 19 20 21 21 22 23 24 25 25 25 26 27 27 27
16 16 16 16 16 16 15 15 16 16 16 16 16 16 16 16 16 16 16 16 17 17 17 18 18 18 19 20 20 21 22 23 23 24 25 26 26 27 27 27 28 28 28
16 17 17 17 17 17 17 17 17 17 17 17 18 18 18 18 17 17 17 17 18 18 19 19 19 20 20 21 22 23 24 25 25 26 28 28 28 28 28 28 28 29 29
Wind_Direction
283 281 278 276 268 267 266 265 263 260 259 259 258 261 258 256 257 258 257 256 257 258 258 257 259 260 259 259 263 266 266 265 265 269 268 269 269 271 269 270 271 270 268
285 281 279 277 269 262 263 265 264 263 263 265 264 263 258 255 258 258 257 253 255 258 257 257 258 259 261 261 263 266 267 267 268 269 270 271 270 269 269 269 271 271 270
286 281 282 278 272 265 263 266 266 267 266 266 264 261 257 255 257 254 253 254 257 259 260 259 260 259 261 263 263 264 266 270 271 271 272 273 270 267 267 268 271 270 269
288 284 281 277 272 268 268 268 269 267 267 265 264 261 259 259 259 256 253 254 258 259 262 262 261 261 258 261 261 265 267 269 270 270 273 272 269 268 271 271 271 271 272
288 284 282 279 275 270 269 269 269 270 268 265 265 264 260 259 260 260 258 257 258 258 260 261 260 259 258 260 263 267 267 266 266 267 271 271 273 273 273 272 271 273 273
292 289 279 277 277 272 271 272 274 274 271 270 267 268 268 266 264 262 262 259 258 257 259 258 259 259 262 260 266 269 268 269 268 268 270 273 275 276 275 276 276 276 276
290 291 283 281 282 277 273 274 276 276 277 275 271 268 265 264 264 263 262 257 258 259 259 259 257 259 261 264 266 268 269 269 267 267 270 273 275 275 274 276 277 277 278
288 290 290 287 284 277 274 276 277 283 283 282 277 271 264 261 256 259 263 256 256 256 258 259 256 258 259 263 265 268 270 268 266 268 271 272 272 273 273 275 274 275 277
295 289 290 291 288 283 279 278 279 281 285 285 281 277 268 257 255 259 263 258 256 255 257 256 257 259 262 263 265 267 266 267 269 271 272 273 273 271 272 274 274 274 274
303 296 287 285 288 287 288 287 282 283 285 289 284 277 273 267 267 262 262 262 258 254 253 258 260 263 267 269 267 266 265 269 275 275 276 277 277 275 273 274 274 275 276
307 302 295 293 290 287 292 294 284 285 289 293 289 285 282 279 275 269 266 264 264 260 258 263 264 267 268 267 267 265 266 270 276 278 279 279 278 278 276 275 274 276 277
306 307 297 291 289 285 289 294 290 288 290 291 290 289 289 290 286 281 274 266 268 266 263 262 265 271 271 270 272 272 271 273 277 280 281 281 282 281 280 278 276 277 278
303 309 302 291 284 284 288 293 295 296 293 292 289 285 285 286 285 282 277 275 273 268 268 268 271 275 273 271 273 276 278 281 283 284 285 284 285 284 282 279 277 277 277
296 308 304 292 282 280 285 291 293 295 298 301 296 295 292 292 287 283 281 276 272 271 271 274 278 279 276 275 277 278 282 287 288 289 287 285 286 286 285 282 279 277 278
292 302 304 295 292 285 286 290 294 294 295 300 299 296 295 293 295 289 289 284 280 278 279 280 281 283 280 277 280 283 286 290 291 291 290 287 286 287 286 283 282 280 280
292 295 300 299 296 296 290 289 292 295 294 294 296 295 291 290 292 290 292 289 286 283 284 281 279 280 283 283 284 286 290 292 293 293 293 292 290 289 288 285 285 284 284
290 292 291 296 295 294 292 286 287 291 293 292 294 297 290 287 287 287 289 291 293 290 286 282 281 282 285 286 287 288 290 292 293 293 293 293 292 290 290 288 286 287 288
284 287 288 288 291 291 289 287 286 288 287 288 291 295 292 288 287 285 289 292 292 289 286 285 284 285 286 285 285 288 289 290 291 292 294 294 293 290 290 291 290 290 290
279 282 284 285 287 285 284 285 283 285 285 286 288 293 289 288 289 287 289 293 294 291 288 286 285 287 289 288 288 290 292 292 294 294 294 294 295 294 293 292 292 293 293
277 277 278 279 284 284 282 285 285 282 284 285 286 288 288 288 291 293 292 292 293 290 287 286 285 286 288 289 289 290 293 294 296 296 296 297 297 297 296 295 296 295 295
274 273 275 276 278 282 280 284 285 283 283 283 284 285 287 287 291 292 292 290 290 289 287 287 287 286 288 289 289 289 291 294 295 296 297 297 298 299 299 299 298 298 297
271 270 271 273 275 277 278 280 282 282 283 284 284 284 286 288 286 290 289 290 291 290 290 288 287 286 288 289 290 291 291 294 295 296 297 297 298 299 300 300 299 300 300
272 269 270 272 272 273 275 277 281 280 280 281 283 285 286 287 286 286 287 287 288 289 290 289 289 288 289 289 290 292 295 295 295 296 297 298 299 300 300 300 300 302 302
272 270 270 270 271 272 274 276 279 280 280 280 281 283 286 287 287 289 288 287 287 287 287 286 285 285 285 287 291 292 294 295 295 296 298 298 299 300 300 300 300 301 302
273 271 269 269 269 270 273 276 276 277 279 279 280 282 285 287 289 290 290 290 289 289 288 287 285 286 287 288 290 291 292 293 294 296 298 299 298 298 298 299 300 301 301
273 272 271 269 270 270 271 273 275 276 277 278 279 281 283 285 287 288 288 289 290 292 292 291 290 289 289 289 290 290 292 293 294 296 297 298 298 297 297 298 298 298 298
Height
5851 5851 5850 5850 5850 5850 5849 5849 5849 5849 5850 5850 5850 5850 5850 5850 5850 5850 5850 5850 5851 5851 5852 5852 5852 5852 5853 5853 5853 5853 5852 5853 5852 5852 5852 5852 5852 5851 5851 5851 5851 5850 5850
5849 5849 5848 5848 5848 5848 5848 5847 5847 5847 5847 5847 5847 5847 5847 5847 5847 5847 5848 5848 5848 5848 5849 5849 5849 5850 5850 5850 5850 5850 5850 5850 5850 5849 5849 5849 5849 5849 5849 5848 5848 5848 5847
5847 5847 5846 5846 5846 5846 5846 5845 5845 5845 5845 5845 5845 5845 5844 5845 5845 5845 5845 5846 5846 5846 5846 5846 5847 5847 5847 5847 5847 5847 5847 5847 5847 5847 5847 5847 5846 5846 5846 5845 5845 5845 5844
5845 5844 5844 5844 5844 5844 5844 5843 5843 5843 5843 5842 5842 5842 5842 5842 5842 5842 5842 5843 5843 5844 5844 5844 5844 5844 5844 5844 5844 5844 5844 5844 5844 5844 5844 5844 5844 5843 5843 5843 5842 5842 5841
5843 5843 5843 5842 5842 5842 5842 5841 5841 5841 5841 5840 5840 5840 5840 5840 5840 5840 5840 5840 5840 5841 5841 5841 5841 5841 5841 5841 5841 5841 5841 5841 5841 5841 5841 5841 5841 5840 5840 5840 5839 5839 5838
5842 5841 5841 5841 5840 5840 5840 5840 5839 5839 5839 5839 5838 5838 5837 5837 5837 5837 5837 5837 5838 5838 5838 5838 5838 5838 5838 5838 5838 5838 5838 5838 5838 5838 5838 5838 5838 5837 5837 5837 5836 5836 5835
5840 5840 5840 5839 5839 5839 5838 5838 5838 5838 5837 5836 5836 5836 5835 5835 5835 5835 5835 5835 5835 5835 5835 5835 5835 5836 5836 5836 5836 5836 5835 5835 5835 5835 5835 5835 5835 5834 5834 5833 5833 5832 5832
5839 5839 5838 5838 5837 5837 5837 5836 5836 5836 5835 5835 5834 5833 5833 5833 5832 5833 5832 5832 5832 5832 5833 5833 5833 5833 5833 5833 5833 5833 5833 5832 5832 5832 5832 5831 5831 5831 5830 5830 5829 5829 5828
5838 5837 5837 5836 5836 5836 5835 5835 5835 5834 5834 5833 5832 5832 5831 5831 5831 5831 5830 5830 5830 5830 5830 5830 5830 5830 5830 5830 5830 5830 5830 5829 5829 5829 5828 5828 5828 5827 5827 5826 5825 5825 5824
5836 5836 5836 5835 5835 5834 5834 5833 5833 5832 5832 5831 5830 5829 5829 5829 5829 5829 5828 5828 5828 5828 5828 5828 5827 5827 5827 5827 5827 5826 5826 5826 5826 5826 5825 5824 5824 5823 5823 5822 5821 5821 5820
5835 5835 5834 5834 5833 5833 5832 5832 5831 5831 5830 5829 5829 5828 5827 5827 5827 5827 5826 5826 5826 5826 5825 5825 5825 5825 5824 5824 5823 5823 5823 5823 5823 5822 5821 5820 5820 5819 5818 5817 5817 5816 5816
5834 5833 5833 5832 5832 5831 5831 5830 5830 5829 5828 5827 5827 5826 5826 5825 5825 5824 5824 5824 5823 5823 5823 5823 5822 5822 5821 5821 5821 5820 5820 5820 5819 5818 5817 5816 5816 5815 5814 5813 5812 5812 5811
5833 5832 5831 5831 5830 5830 5829 5829 5828 5827 5827 5826 5825 5824 5824 5823 5823 5822 5822 5821 5821 5821 5821 5820 5820 5819 5819 5818 5818 5817 5817 5816 5816 5815 5814 5813 5812 5810 5809 5808 5808 5807 5807
5831 5831 5830 5829 5828 5828 5828 5827 5826 5826 5825 5824 5823 5823 5822 5821 5821 5820 5820 5819 5818 5818 5818 5818 5817 5816 5816 5815 5815 5814 5814 5813 5812 5811 5810 5809 5807 5806 5805 5804 5803 5802 5802
5830 5829 5828 5827 5827 5826 5826 5825 5825 5824 5823 5822 5822 5821 5820 5820 5819 5818 5817 5817 5817 5816 5815 5815 5815 5814 5813 5813 5812 5811 5811 5810 5809 5807 5806 5805 5803 5802 5801 5800 5799 5798 5797
5828 5827 5826 5826 5825 5825 5824 5824 5823 5822 5821 5821 5820 5819 5819 5818 5817 5816 5815 5814 5814 5813 5813 5812 5812 5812 5811 5810 5809 5809 5807 5806 5805 5804 5802 5801 5799 5798 5797 5795 5794 5793 5792
5826 5825 5825 5824 5823 5823 5822 5821 5821 5820 5819 5819 5818 5817 5817 5816 5815 5814 5813 5812 5812 5811 5810 5810 5809 5809 5808 5808 5807 5805 5804 5803 5802 5800 5798 5797 5795 5793 5792 5791 5789 5788 5787
5824 5823 5823 5822 5821 5821 5820 5819 5819 5818 5817 5816 5816 5815 5814 5813 5813 5812 5811 5810 5809 5808 5808 5807 5806 5806 5805 5804 5803 5802 5801 5800 5798 5796 5795 5793 5791 5789 5787 5786 5784 5783 5781
5821 5821 5820 5820 5819 5818 5817 5817 5816 5815 5815 5814 5813 5813 5812 5811 5810 5809 5809 5808 5807 5806 5805 5805 5804 5803 5802 5801 5800 5799 5797 5796 5794 5792 5790 5788 5787 5785 5783 5781 5779 5777 5775
5818 5818 5818 5817 5816 5816 5815 5814 5813 5813 5812 5811 5811 5810 5809 5808 5807 5807 5806 5805 5804 5803 5802 5801 5801 5800 5799 5797 5796 5795 5793 5791 5790 5788 5786 5784 5782 5780 5778 5776 5773 5771 5768
5815 5815 5814 5814 5813 5813 5812 5811 5811 5810 5809 5809 5808 5807 5806 5805 5805 5804 5803 5802 5801 5800 5799 5798 5797 5796 5795 5794 5792 5791 5789 5787 5786 5783 5782 5779 5777 5775 5772 5770 5767 5764 5762
5811 5811 5810 5810 5810 5809 5809 5808 5807 5807 5806 5805 5805 5804 5803 5802 5801 5801 5800 5798 5798 5796 5795 5794 5793 5792 5791 5789 5788 5786 5785 5783 5781 5779 5777 5775 5772 5769 5766 5763 5761 5758 5755
5807 5807 5806 5806 5806 5805 5805 5804 5803 5803 5802 5802 5801 5800 5800 5799 5798 5797 5796 5795 5794 5792 5791 5790 5789 5788 5786 5785 5784 5782 5780 5778 5776 5774 5772 5769 5766 5763 5760 5757 5754 5751 5748
5802 5802 5802 5802 5801 5801 5800 5800 5799 5799 5798 5798 5797 5796 5795 5794 5793 5792 5791 5790 5789 5788 5787 5786 5785 5783 5781 5780 5778 5777 5775 5773 5771 5768 5765 5763 5760 5757 5754 5750 5747 5744 5741
5798 5797 5797 5797 5797 5796 5796 5796 5795 5794 5794 5793 5793 5792 5791 5790 5789 5788 5787 5786 5784 5783 5782 5780 5779 5777 5776 5774 5773 5771 5769 5767 5765 5762 5759 5756 5753 5750 5747 5744 5740 5737 5733
5793 5792 5792 5792 5791 5791 5791 5791 5790 5789 5789 5788 5788 5787 5786 5785 5784 5783 5782 5781 5779 5778 5776 5775 5773 5772 5770 5768 5766 5764 5762 5760 5758 5755 5752 5749 5746 5742 5740 5737 5733 5729 5726